Regional Weather Roundup
Issued by NWS

Home | Current Version | Previous Version | Graphics & Text | Print | Product List | Glossary Off
Versions: 1 2 3 4 5 6 7 8 9 10 11 12 13 14 15 16 17 18 19 20 21 22 23 24 25 26 27 28 29 30 31 32 33 34 35 36 37 38 39 40 41 42 43 44 45 46 47 48 49 50

000
ASUS43 KDTX 240110
RWRMI
MICHIGAN HOURLY REGIONAL WEATHER ROUNDUP
NATIONAL WEATHER SERVICE DETROIT/PONTIAC MI
900 PM EDT MON APR 23 2018

NOTE: "FAIR" INDICATES FEW OR NO CLOUDS BELOW 12,000 FEET WITH NO
SIGNIFICANT WEATHER AND/OR OBSTRUCTION TO VISIBILITY.

MIZ047>049-052>055-059>063-066>070-074>076-081>083-240200-
SOUTHEAST LOWER MICHIGAN

CITY           SKY/WX    TMP DP  RH WIND       PRES   REMARKS
ADRIAN         MOCLDY    57  49  74 S9        30.17S
ALMA           FAIR      57  42  56 NE6       30.13R
ANN ARBOR      FAIR      55  43  63 S7        30.17R
BAD AXE        FAIR      57  33  39 CALM      30.16S
CARO           FAIR      62  37  40 CALM      30.14R
DETROIT CITY   FAIR      58  38  47 S13       30.17R
DETROIT        CLOUDY    56  41  57 S10       30.18R
FLINT          FAIR      60  42  51 SE6       30.13S
GROSSE ILE     FAIR      50  41  71 S5        30.17S
HILLSDALE      CLOUDY    55  46  71 SE6       30.15S
HOWELL         CLOUDY    64  39  40 S14       30.14R

CITY           SKY/WX    TMP DP  RH WIND       PRES   REMARKS
JACKSON        CLOUDY    60  50  69 S13       30.15R
LAMBERTVILLE   CLOUDY    60  44  54 SW9       30.17S
LANSING        MOCLDY    66  42  41 S12       30.13R
LAPEER         FAIR      62  38  41 CALM      30.15S
MASON          MOCLDY    64  40  41 S12       30.14R
MONROE         CLOUDY    52  43  72 CALM      30.17S
PONTIAC        CLOUDY    64  41  42 SE6       30.14R
PORT HOPE        N/A     45  34  65 SE5       30.16S
PORT HURON     FAIR      59  39  47 NE3       30.16R
TRI CITIES     FAIR      48  39  71 NE9       30.14S
MIDLAND        FAIR      52  38  59 E8        30.13S
TROY           FAIR      65  39  38 S14G29    30.19R
SAGINAW HB     FAIR      50  41  71 N6        30.14R
$$
MIZ043>046-050>051-056>058-064>065-071>073-077>080-240200-
SOUTHWEST LOWER MICHIGAN

CITY           SKY/WX    TMP DP  RH WIND       PRES   REMARKS
BATTLE CREEK   MOCLDY    60  50  69 S12       30.14R
BENTON HARBOR  MOCLDY    60  44  55 S9        30.11R
BIG RAPIDS     FAIR      62  33  34 S7        30.11S
COLDWATER      CLOUDY    57  51  82 SE5       30.14S
FREMONT        FAIR      64  26  23 CALM      30.09S
HOLLAND        CLOUDY    68  41  37 E6        30.07S
GRAND RAPIDS   MOCLDY    64  41  42 E7        30.09R
IONIA          FAIR      63  42  46 SE10      30.10R
KALAMAZOO      CLOUDY    60  50  69 S10       30.14R
LUDINGTON      FAIR      52  31  43 N3        30.11S
MARSHALL       CLOUDY    59  49  70 S10       30.14R
MOUNT PLEASANT FAIR      62  38  41 E7        30.12R
MUSKEGON       MOCLDY    65  38  36 N3        30.08S
SOUTH HAVEN    MOCLDY    62  41  45 S9        30.10R
$$
MIZ016>042-240200-
NORTHERN LOWER MICHIGAN

CITY           SKY/WX    TMP DP  RH WIND       PRES   REMARKS
ALPENA         FAIR      45  29  53 CALM      30.19S
BEAVER ISLAND  FAIR      48  24  38 E7        30.16F
CADILLAC       FAIR      54  27  35 N3        30.13S
CHARLEVOIX     FAIR      51  26  37 NE3       30.19S
FRANKFORT      FAIR      54  25  33 E7        30.14S
GAYLORD        FAIR      50  24  36 N5        30.16R
HARBOR SPRINGS FAIR      51  22  32 NE5       30.17S
HOUGHTON LAKE  FAIR      56  40  55 E3        30.14S
MANISTEE       FAIR      56  28  34 NE8       30.12R
OSCODA         FAIR      45  28  52 NE5       30.17S
PELLSTON       FAIR      48  24  39 CALM      30.18S
ROGERS CITY    FAIR      46  28  49 SE3       30.19S
TRAVERSE CITY  MOCLDY    46  31  55 W3        30.14S
$$
MIZ007>008-015-240200-
EASTERN UPPER MICHIGAN

CITY           SKY/WX    TMP DP  RH WIND       PRES   REMARKS
KINROSS        FAIR      49  20  31 SE5       30.18S
MACKINAC ISLAN FAIR      49  21  32 E9        30.17F
NEWBERRY       FAIR      47  22  36 S6        30.16S
S. S. MARIE    FAIR      52  22  30 CALM      30.17F
MUNISING         N/A     51  28  41 S7        30.13S
$$
MIZ004>006-011>014-085-240200-
CENTRAL UPPER MICHIGAN

CITY           SKY/WX    TMP DP  RH WIND       PRES   REMARKS
MANISTIQUE     FAIR      42  27  54 CALM      30.15F
ESCANABA       FAIR      44  28  53 CALM      30.15F
MENOMINEE      FAIR      52  28  39 NE3       30.15S
SAWYER-GWINN   CLEAR     54  25  32 S9        30.13S
$$
MIZ001>003-009>011-084-240200-
WESTERN UPPER MICHIGAN

CITY           SKY/WX    TMP DP  RH WIND       PRES   REMARKS
IRON MOUNTAIN  FAIR      57  24  28 SE3       30.11S
HOUGHTON       FAIR      52  28  39 CALM      30.11S
COPPER HARBOR    N/A     51  25  36 SW7       30.10F
IRONWOOD       FAIR      55  30  38 CALM      30.12S
$$

ABBREVIATIONS USED IN REMARKS
   TC - TEMPERATURE IN CELSIUS
  WCI - WIND CHILL INDEX
   HX - HEAT INDEX
  VSB - VISIBILITY





USA.gov is the U.S. government's official web portal to all federal, state and local government web resources and services.